This is the latest recevied weather packets stored in our database for station/object N9DMT-13. If no packets are shown the sender has not sent any weather packets the latest 10 day(s).
| Time | Temp. | Humidity | Pressure | Rain* | Wind** | Luminosity | Snow |
|---|---|---|---|---|---|---|---|
| 1778226797 | -1.67° C | 90% | 978.9 hPa | 0 mm | - | - | - |
| 1778226497 | -1.67° C | 89% | 978.9 hPa | 0 mm | - | - | - |
| 1778226196 | -1.67° C | 89% | 978.9 hPa | 0 mm | - | - | - |
| 1778225895 | -1.11° C | 89% | 978.8 hPa | 0 mm | - | - | - |
| 1778225594 | -1.11° C | 89% | 978.9 hPa | 0 mm | - | - | - |
| 1778225293 | -1.11° C | 89% | 978.9 hPa | 0 mm | - | - | - |
| 1778224992 | -1.11° C | 90% | 978.8 hPa | 0 mm | - | - | - |
| 1778224692 | -1.67° C | 90% | 979.1 hPa | 0 mm | - | - | - |
| 1778224391 | -1.67° C | 89% | 979.2 hPa | 0 mm | - | - | - |
| 1778224090 | -1.11° C | 89% | 979.2 hPa | 0 mm | - | - | - |
| 1778223790 | -1.11° C | 88% | 979 hPa | 0 mm | - | - | - |
| 1778223489 | -1.11° C | 87% | 979.2 hPa | 0 mm | - | - | - |
| 1778223188 | -0.56° C | 87% | 979.2 hPa | 0 mm | - | - | - |
| 1778222887 | -0.56° C | 87% | 979.2 hPa | 0 mm | - | - | - |
| 1778222586 | -0.56° C | 87% | 979.4 hPa | 0 mm | - | - | - |
| 1778222285 | -0.56° C | 86% | 979.3 hPa | 0 mm | - | - | - |
| 1778221984 | -0.56° C | 87% | 979.2 hPa | 0 mm | - | - | - |
| 1778221684 | -0.56° C | 87% | 979.3 hPa | 0 mm | - | - | - |
| 1778221383 | -0.56° C | 87% | 979.4 hPa | 0 mm | - | - | - |
| 1778221082 | -0.56° C | 87% | 979.4 hPa | 0 mm | - | - | - |
| 1778220781 | 0° C | 87% | 979.6 hPa | 0 mm | - | - | - |
| 1778220481 | 0° C | 87% | 979.6 hPa | 0 mm | - | - | - |
| 1778220180 | -0.56° C | 87% | 979.6 hPa | 0 mm | - | - | - |
| 1778219879 | -0.56° C | 87% | 979.5 hPa | 0 mm | - | - | - |
| 1778219578 | -0.56° C | 86% | 979.8 hPa | 0 mm | - | - | - |
* Rain latest hour (hover to see other rain measurements)
** Current wind speed in m/s (hover to see current wind gust speed)